Time,TemperatureF,DewpointF,PressureIn,WindDirection,WindDirectionDegrees,WindSpeedMPH,WindSpeedGustMPH,Humidity,HourlyPrecipIn,Conditions,Clouds,dailyrainin,SoftwareType,DateUTC
2013-02-08 00:01:00,37.1,35.0,30.09,West,264,3.0,7.0,92,0.00,,SKC,0.17,VWS V13.01,2013-02-08 06:01:00,
2013-02-08 00:06:00,37.1,35.0,30.09,NW,312,4.0,10.0,92,0.00,,SKC,0.00,VWS V13.01,2013-02-08 06:06:00,
2013-02-08 00:11:00,37.0,34.9,30.09,NW,315,3.0,10.0,92,0.00,,SKC,0.00,VWS V13.01,2013-02-08 06:11:00,
2013-02-08 00:16:00,36.9,34.8,30.09,NNW,344,3.0,11.0,92,0.00,,SKC,0.00,VWS V13.01,2013-02-08 06:16:00,
2013-02-08 00:21:00,36.9,34.8,30.09,WNW,298,6.0,14.0,92,0.00,,SKC,0.00,VWS V13.01,2013-02-08 06:21:00,
2013-02-08 00:26:00,36.8,34.7,30.10,North,355,3.0,6.0,92,0.00,,SKC,0.00,VWS V13.01,2013-02-08 06:26:00,
2013-02-08 00:31:00,36.8,34.7,30.10,NNE,33,0.0,6.0,92,0.00,,SKC,0.00,VWS V13.01,2013-02-08 06:31:00,
2013-02-08 00:36:00,36.8,34.7,30.10,NNE,18,3.0,10.0,92,0.00,,SKC,0.00,VWS V13.01,2013-02-08 06:36:00,
2013-02-08 00:40:00,36.7,34.3,30.10,NW,314,0.0,11.0,91,0.00,,SKC,0.00,VWS V13.01,2013-02-08 06:40:00,
2013-02-08 00:45:00,36.7,34.3,30.10,WNW,298,3.0,4.0,91,0.00,,SKC,0.00,VWS V13.01,2013-02-08 06:45:00,
2013-02-08 00:50:00,36.7,34.6,30.10,NNE,23,1.0,4.0,92,0.00,,SKC,0.00,VWS V13.01,2013-02-08 06:50:00,
2013-02-08 00:55:00,36.6,34.2,30.11,NNW,340,10.0,11.0,91,0.00,,SKC,0.00,VWS V13.01,2013-02-08 06:55:00,
2013-02-08 01:00:00,36.3,33.9,30.11,NNW,342,1.0,13.0,91,0.00,,SKC,0.00,VWS V13.01,2013-02-08 07:00:00,
2013-02-08 01:05:00,36.1,33.7,30.11,WNW,293,4.0,12.0,91,0.00,,SKC,0.00,VWS V13.01,2013-02-08 07:05:00,
2013-02-08 01:10:00,36.0,33.6,30.11,NW,318,3.0,12.0,91,0.00,,SKC,0.00,VWS V13.01,2013-02-08 07:10:00,
2013-02-08 01:15:00,35.9,33.5,30.12,NNE,12,1.0,7.0,91,0.00,,SKC,0.00,VWS V13.01,2013-02-08 07:15:00,
2013-02-08 01:20:00,35.8,33.4,30.12,NNE,18,2.0,11.0,91,0.00,,SKC,0.00,VWS V13.01,2013-02-08 07:20:00,
2013-02-08 01:25:00,35.7,33.3,30.12,NW,310,6.0,6.0,91,0.00,,SKC,0.00,VWS V13.01,2013-02-08 07:25:00,
2013-02-08 01:30:00,35.6,33.5,30.12,NW,304,2.0,12.0,92,0.00,,SKC,0.00,VWS V13.01,2013-02-08 07:30:00,
2013-02-08 01:35:00,35.5,33.4,30.12,NNW,331,2.0,9.0,92,0.00,,SKC,0.00,VWS V13.01,2013-02-08 07:35:00,
2013-02-08 01:40:00,35.5,33.4,30.12,NNW,334,5.0,11.0,92,0.00,,SKC,0.00,VWS V13.01,2013-02-08 07:40:00,
2013-02-08 01:45:00,35.3,33.2,30.13,North,355,4.0,6.0,92,0.00,,SKC,0.00,VWS V13.01,2013-02-08 07:45:00,
2013-02-08 01:50:00,35.3,33.2,30.13,NNW,329,2.0,7.0,92,0.00,,SKC,0.00,VWS V13.01,2013-02-08 07:50:00,
2013-02-08 01:55:00,35.1,33.0,30.13,NW,315,5.0,10.0,92,0.00,,SKC,0.00,VWS V13.01,2013-02-08 07:55:00,
2013-02-08 02:00:00,35.0,32.9,30.13,NNW,341,6.0,11.0,92,0.00,,SKC,0.00,VWS V13.01,2013-02-08 08:00:00,
2013-02-08 02:05:00,35.0,32.9,30.14,WNW,282,9.0,9.0,92,0.00,,SKC,0.00,VWS V13.01,2013-02-08 08:05:00,
2013-02-08 02:10:00,34.9,32.8,30.14,NW,306,3.0,11.0,92,0.00,,SKC,0.00,VWS V13.01,2013-02-08 08:10:00,
2013-02-08 02:15:00,34.8,32.7,30.14,NE,40,1.0,6.0,92,0.00,,SKC,0.00,VWS V13.01,2013-02-08 08:15:00,
2013-02-08 02:20:00,34.8,32.7,30.14,WNW,287,4.0,6.0,92,0.00,,SKC,0.00,VWS V13.01,2013-02-08 08:20:00,
2013-02-08 02:25:00,34.7,32.6,30.14,NW,316,6.0,10.0,92,0.00,,SKC,0.00,VWS V13.01,2013-02-08 08:25:00,
2013-02-08 02:30:00,34.6,32.5,30.14,NNW,348,6.0,12.0,92,0.00,,SKC,0.00,VWS V13.01,2013-02-08 08:30:00,
2013-02-08 02:35:00,34.4,32.3,30.14,NW,318,5.0,9.0,92,0.00,,SKC,0.00,VWS V13.01,2013-02-08 08:35:00,
2013-02-08 02:40:00,34.4,32.3,30.15,NW,321,2.0,12.0,92,0.00,,SKC,0.00,VWS V13.01,2013-02-08 08:40:00,
2013-02-08 02:45:00,34.4,32.3,30.15,NW,318,2.0,3.0,92,0.00,,SKC,0.00,VWS V13.01,2013-02-08 08:45:00,
2013-02-08 02:50:00,34.4,32.3,30.15,WNW,295,1.0,9.0,92,0.00,,SKC,0.00,VWS V13.01,2013-02-08 08:50:00,
2013-02-08 02:55:00,34.4,32.3,30.15,North,360,1.0,6.0,92,0.00,,SKC,0.00,VWS V13.01,2013-02-08 08:55:00,
2013-02-08 03:00:00,34.4,32.3,30.15,WNW,288,6.0,10.0,92,0.00,,SKC,0.00,VWS V13.01,2013-02-08 09:00:00,
2013-02-08 03:05:00,34.4,32.3,30.15,NW,326,2.0,8.0,92,0.00,,SKC,0.00,VWS V13.01,2013-02-08 09:05:00,
2013-02-08 03:10:00,34.4,32.3,30.16,NW,304,6.0,9.0,92,0.00,,SKC,0.00,VWS V13.01,2013-02-08 09:10:00,
2013-02-08 03:15:00,34.4,32.3,30.16,NW,323,4.0,10.0,92,0.00,,SKC,0.00,VWS V13.01,2013-02-08 09:15:00,
2013-02-08 03:20:00,34.4,32.3,30.16,WNW,290,2.0,11.0,92,0.00,,SKC,0.00,VWS V13.01,2013-02-08 09:20:00,
2013-02-08 03:25:00,34.4,32.3,30.16,NW,311,2.0,6.0,92,0.00,,SKC,0.00,VWS V13.01,2013-02-08 09:25:00,
2013-02-08 03:30:00,34.4,32.3,30.16,NW,315,3.0,11.0,92,0.00,,SKC,0.00,VWS V13.01,2013-02-08 09:30:00,
2013-02-08 03:35:00,34.4,32.3,30.16,NNW,340,6.0,6.0,92,0.00,,SKC,0.00,VWS V13.01,2013-02-08 09:35:00,
2013-02-08 03:40:00,34.4,32.3,30.17,North,350,4.0,7.0,92,0.00,,SKC,0.00,VWS V13.01,2013-02-08 09:40:00,
2013-02-08 03:45:00,34.3,32.2,30.17,WNW,298,3.0,12.0,92,0.00,,SKC,0.00,VWS V13.01,2013-02-08 09:45:00,
2013-02-08 03:50:00,34.2,32.1,30.17,WNW,285,3.0,14.0,92,0.00,,SKC,0.00,VWS V13.01,2013-02-08 09:50:00,
2013-02-08 03:55:00,34.2,32.1,30.18,NW,311,3.0,5.0,92,0.00,,SKC,0.00,VWS V13.01,2013-02-08 09:55:00,
2013-02-08 04:00:00,34.1,32.0,30.18,North,5,3.0,6.0,92,0.00,,SKC,0.00,VWS V13.01,2013-02-08 10:00:00,
2013-02-08 04:05:00,34.1,32.0,30.18,NNW,327,10.0,11.0,92,0.00,,SKC,0.00,VWS V13.01,2013-02-08 10:05:00,
2013-02-08 04:10:00,34.1,32.0,30.18,NNW,344,4.0,11.0,92,0.00,,SKC,0.00,VWS V13.01,2013-02-08 10:10:00,
2013-02-08 04:15:00,34.0,31.9,30.18,WNW,285,5.0,9.0,92,0.00,,SKC,0.00,VWS V13.01,2013-02-08 10:15:00,
2013-02-08 04:20:00,34.0,31.9,30.19,NNW,329,4.0,13.0,92,0.00,,SKC,0.00,VWS V13.01,2013-02-08 10:20:00,
2013-02-08 04:25:00,34.1,31.8,30.19,NNW,342,3.0,10.0,91,0.00,,SKC,0.00,VWS V13.01,2013-02-08 10:25:00,
2013-02-08 04:30:00,34.1,31.8,30.20,WNW,300,2.0,11.0,91,0.00,,SKC,0.00,VWS V13.01,2013-02-08 10:30:00,
2013-02-08 04:35:00,34.1,31.8,30.20,NNE,19,4.0,7.0,91,0.00,,SKC,0.00,VWS V13.01,2013-02-08 10:35:00,
2013-02-08 04:40:00,34.2,31.6,30.20,NNW,347,0.0,8.0,90,0.00,,SKC,0.00,VWS V13.01,2013-02-08 10:40:00,
2013-02-08 04:45:00,34.1,31.5,30.20,NW,314,4.0,5.0,90,0.00,,SKC,0.00,VWS V13.01,2013-02-08 10:45:00,
2013-02-08 04:50:00,34.1,31.5,30.20,NE,36,2.0,7.0,90,0.00,,SKC,0.00,VWS V13.01,2013-02-08 10:50:00,
2013-02-08 04:55:00,34.0,31.4,30.21,North,351,3.0,6.0,90,0.00,,SKC,0.00,VWS V13.01,2013-02-08 10:55:00,
2013-02-08 05:00:00,33.9,31.3,30.21,NNE,32,4.0,9.0,90,0.00,,SKC,0.00,VWS V13.01,2013-02-08 11:00:00,
2013-02-08 05:05:00,33.8,31.2,30.21,NNW,334,1.0,5.0,90,0.00,,SKC,0.00,VWS V13.01,2013-02-08 11:05:00,
2013-02-08 05:10:00,33.6,30.7,30.22,NNW,336,2.0,11.0,89,0.00,,SKC,0.00,VWS V13.01,2013-02-08 11:10:00,
2013-02-08 05:15:00,33.5,30.6,30.22,NE,49,3.0,9.0,89,0.00,,SKC,0.00,VWS V13.01,2013-02-08 11:15:00,
2013-02-08 05:20:00,33.4,30.5,30.22,ENE,65,2.0,10.0,89,0.00,,SKC,0.00,VWS V13.01,2013-02-08 11:20:00,
2013-02-08 05:25:00,33.4,30.5,30.22,NW,322,4.0,12.0,89,0.00,,SKC,0.00,VWS V13.01,2013-02-08 11:25:00,
2013-02-08 05:30:00,33.5,30.6,30.23,NNE,28,5.0,13.0,89,0.00,,SKC,0.00,VWS V13.01,2013-02-08 11:30:00,
2013-02-08 05:35:00,33.5,30.6,30.23,North,350,3.0,11.0,89,0.00,,SKC,0.00,VWS V13.01,2013-02-08 11:35:00,
2013-02-08 05:40:00,33.5,30.6,30.23,NW,323,6.0,11.0,89,0.00,,SKC,0.00,VWS V13.01,2013-02-08 11:40:00,
2013-02-08 05:45:00,33.4,30.2,30.23,NNW,333,4.0,6.0,88,0.00,,SKC,0.00,VWS V13.01,2013-02-08 11:45:00,
2013-02-08 05:50:00,33.4,30.2,30.24,NNE,24,0.0,8.0,88,0.00,,SKC,0.00,VWS V13.01,2013-02-08 11:50:00,
2013-02-08 05:55:00,33.5,30.3,30.24,North,349,1.0,3.0,88,0.00,,SKC,0.00,VWS V13.01,2013-02-08 11:55:00,
2013-02-08 06:00:00,33.5,30.3,30.24,NNW,340,3.0,7.0,88,0.00,,SKC,0.00,VWS V13.01,2013-02-08 12:00:00,
2013-02-08 06:05:00,33.6,30.4,30.25,NW,307,0.0,3.0,88,0.00,,SKC,0.00,VWS V13.01,2013-02-08 12:05:00,
2013-02-08 06:10:00,33.5,30.3,30.25,NE,42,3.0,7.0,88,0.00,,SKC,0.00,VWS V13.01,2013-02-08 12:10:00,
2013-02-08 06:15:00,33.5,30.3,30.25,North,349,2.0,5.0,88,0.00,,SKC,0.00,VWS V13.01,2013-02-08 12:15:00,
2013-02-08 06:20:00,33.5,30.3,30.26,ESE,118,2.0,5.0,88,0.00,,SKC,0.00,VWS V13.01,2013-02-08 12:20:00,
2013-02-08 06:25:00,33.5,30.3,30.26,NW,319,4.0,7.0,88,0.00,,SKC,0.00,VWS V13.01,2013-02-08 12:25:00,
2013-02-08 06:30:00,33.5,30.3,30.26,NW,323,3.0,7.0,88,0.00,,SKC,0.00,VWS V13.01,2013-02-08 12:30:00,
2013-02-08 06:35:00,33.6,30.4,30.27,NW,323,2.0,5.0,88,0.00,,SKC,0.00,VWS V13.01,2013-02-08 12:35:00,
2013-02-08 06:40:00,33.5,30.3,30.27,NW,320,3.0,7.0,88,0.00,,SKC,0.00,VWS V13.01,2013-02-08 12:40:00,
2013-02-08 06:45:00,33.4,30.0,30.27,NNW,348,4.0,10.0,87,0.00,,SKC,0.00,VWS V13.01,2013-02-08 12:45:00,
2013-02-08 06:50:00,33.4,30.0,30.28,North,5,8.0,13.0,87,0.00,,SKC,0.00,VWS V13.01,2013-02-08 12:50:00,
2013-02-08 06:55:00,33.5,30.0,30.28,NW,321,10.0,14.0,87,0.00,,SKC,0.00,VWS V13.01,2013-02-08 12:55:00,
2013-02-08 07:00:00,33.5,29.8,30.28,NE,44,2.0,14.0,86,0.00,,SKC,0.00,VWS V13.01,2013-02-08 13:00:00,
2013-02-08 07:05:00,33.5,29.8,30.29,NNW,346,1.0,3.0,86,0.00,,SKC,0.00,VWS V13.01,2013-02-08 13:05:00,
2013-02-08 07:10:00,33.4,29.7,30.29,North,360,1.0,11.0,86,0.00,,SKC,0.00,VWS V13.01,2013-02-08 13:10:00,
2013-02-08 07:15:00,33.3,29.6,30.29,North,355,5.0,7.0,86,0.00,,SKC,0.00,VWS V13.01,2013-02-08 13:15:00,
2013-02-08 07:20:00,33.3,29.6,30.30,NNE,32,7.0,9.0,86,0.00,,SKC,0.00,VWS V13.01,2013-02-08 13:20:00,
2013-02-08 07:25:00,33.2,29.2,30.30,North,5,4.0,9.0,85,0.00,,SKC,0.00,VWS V13.01,2013-02-08 13:25:00,
2013-02-08 07:30:00,33.2,29.5,30.30,NW,321,2.0,9.0,86,0.00,,SKC,0.00,VWS V13.01,2013-02-08 13:30:00,
2013-02-08 07:35:00,33.3,29.6,30.31,NNW,333,3.0,6.0,86,0.00,,SKC,0.00,VWS V13.01,2013-02-08 13:35:00,
2013-02-08 07:40:00,33.3,29.6,30.31,NNE,19,3.0,12.0,86,0.00,,SKC,0.00,VWS V13.01,2013-02-08 13:40:00,
2013-02-08 07:45:00,33.2,29.5,30.31,North,349,2.0,9.0,86,0.00,,SKC,0.00,VWS V13.01,2013-02-08 13:45:00,
2013-02-08 07:50:00,33.1,29.1,30.31,NNW,332,2.0,11.0,85,0.00,,SKC,0.00,VWS V13.01,2013-02-08 13:50:00,
2013-02-08 07:55:00,33.1,29.1,30.31,NE,51,6.0,10.0,85,0.00,,SKC,0.00,VWS V13.01,2013-02-08 13:55:00,
2013-02-08 08:00:00,33.2,29.2,30.31,NNW,329,5.0,11.0,85,0.00,,SKC,0.00,VWS V13.01,2013-02-08 14:00:00,
2013-02-08 08:05:00,33.2,29.2,30.32,NW,325,5.0,7.0,85,0.00,,SKC,0.00,VWS V13.01,2013-02-08 14:05:00,
2013-02-08 08:10:00,33.2,29.2,30.33,WNW,302,6.0,10.0,85,0.00,,SKC,0.00,VWS V13.01,2013-02-08 14:10:00,
2013-02-08 08:15:00,33.2,29.2,30.33,NE,36,1.0,5.0,85,0.00,,SKC,0.00,VWS V13.01,2013-02-08 14:15:00,
2013-02-08 08:20:00,33.2,29.2,30.33,NNE,33,1.0,11.0,85,0.00,,SKC,0.00,VWS V13.01,2013-02-08 14:20:00,
2013-02-08 08:25:00,33.2,29.2,30.34,WNW,302,11.0,13.0,85,0.00,,SKC,0.00,VWS V13.01,2013-02-08 14:25:00,
2013-02-08 08:30:00,33.2,28.9,30.34,NNW,341,1.0,13.0,84,0.00,,SKC,0.00,VWS V13.01,2013-02-08 14:30:00,
2013-02-08 08:35:00,33.2,28.9,30.34,NW,326,2.0,5.0,84,0.00,,SKC,0.00,VWS V13.01,2013-02-08 14:35:00,
2013-02-08 08:40:00,33.3,29.0,30.34,NNW,333,3.0,6.0,84,0.00,,SKC,0.00,VWS V13.01,2013-02-08 14:40:00,
2013-02-08 08:45:00,33.4,29.1,30.34,NNW,333,4.0,10.0,84,0.00,,SKC,0.00,VWS V13.01,2013-02-08 14:45:00,
2013-02-08 08:50:00,33.4,29.1,30.34,NE,44,2.0,10.0,84,0.00,,SKC,0.00,VWS V13.01,2013-02-08 14:50:00,
2013-02-08 08:55:00,33.5,29.2,30.33,NW,325,3.0,7.0,84,0.00,,SKC,0.00,VWS V13.01,2013-02-08 14:55:00,
2013-02-08 09:00:00,33.5,29.2,30.34,NNW,335,0.0,8.0,84,0.00,,SKC,0.00,VWS V13.01,2013-02-08 15:00:00,
2013-02-08 09:05:00,33.6,29.3,30.34,NNW,331,2.0,7.0,84,0.00,,SKC,0.00,VWS V13.01,2013-02-08 15:05:00,
2013-02-08 09:10:00,33.5,29.2,30.34,NW,310,2.0,7.0,84,0.00,,SKC,0.00,VWS V13.01,2013-02-08 15:10:00,
2013-02-08 09:15:00,33.5,28.9,30.35,NNW,338,5.0,6.0,83,0.00,,SKC,0.00,VWS V13.01,2013-02-08 15:15:00,
2013-02-08 09:20:00,33.4,28.8,30.35,NNW,348,2.0,6.0,83,0.00,,SKC,0.00,VWS V13.01,2013-02-08 15:20:00,
2013-02-08 09:25:00,33.5,29.2,30.35,NNE,30,0.0,2.0,84,0.00,,SKC,0.00,VWS V13.01,2013-02-08 15:25:00,
2013-02-08 09:30:00,33.5,29.2,30.35,NNE,18,2.0,5.0,84,0.00,,SKC,0.00,VWS V13.01,2013-02-08 15:30:00,
2013-02-08 09:35:00,33.5,29.2,30.35,North,350,0.0,3.0,84,0.00,,SKC,0.00,VWS V13.01,2013-02-08 15:35:00,
2013-02-08 09:40:00,33.6,29.3,30.35,North,349,2.0,3.0,84,0.00,,SKC,0.00,VWS V13.01,2013-02-08 15:40:00,
2013-02-08 09:45:00,33.7,29.4,30.35,NNW,331,5.0,5.0,84,0.00,,SKC,0.00,VWS V13.01,2013-02-08 15:45:00,
2013-02-08 09:50:00,33.7,29.4,30.36,NW,313,3.0,5.0,84,0.00,,SKC,0.00,VWS V13.01,2013-02-08 15:50:00,
2013-02-08 09:55:00,33.7,29.4,30.36,WNW,287,4.0,4.0,84,0.00,,SKC,0.00,VWS V13.01,2013-02-08 15:55:00,
2013-02-08 10:00:00,33.7,29.4,30.36,NNW,346,0.0,5.0,84,0.00,,SKC,0.00,VWS V13.01,2013-02-08 16:00:00,
2013-02-08 10:05:00,33.7,29.4,30.36,North,355,0.0,4.0,84,0.00,,SKC,0.00,VWS V13.01,2013-02-08 16:05:00,
2013-02-08 10:10:00,33.7,29.1,30.36,North,355,4.0,10.0,83,0.00,,SKC,0.00,VWS V13.01,2013-02-08 16:10:00,
2013-02-08 10:15:00,33.8,29.2,30.36,NNE,25,1.0,2.0,83,0.00,,SKC,0.00,VWS V13.01,2013-02-08 16:15:00,
2013-02-08 10:20:00,33.9,29.3,30.37,North,351,2.0,7.0,83,0.00,,SKC,0.00,VWS V13.01,2013-02-08 16:20:00,
2013-02-08 10:25:00,33.9,29.3,30.37,North,360,1.0,6.0,83,0.00,,SKC,0.00,VWS V13.01,2013-02-08 16:25:00,
2013-02-08 10:30:00,33.9,29.0,30.37,North,350,3.0,6.0,82,0.00,,SKC,0.00,VWS V13.01,2013-02-08 16:30:00,
2013-02-08 10:35:00,33.9,29.0,30.37,NNE,33,3.0,4.0,82,0.00,,SKC,0.00,VWS V13.01,2013-02-08 16:35:00,
2013-02-08 10:40:00,33.9,29.0,30.37,North,360,1.0,9.0,82,0.00,,SKC,0.00,VWS V13.01,2013-02-08 16:40:00,
2013-02-08 10:45:00,33.9,29.0,30.37,NE,42,2.0,6.0,82,0.00,,SKC,0.00,VWS V13.01,2013-02-08 16:45:00,
2013-02-08 10:50:00,34.0,29.1,30.37,NNE,19,2.0,10.0,82,0.00,,SKC,0.00,VWS V13.01,2013-02-08 16:50:00,
2013-02-08 10:55:00,34.1,29.2,30.37,North,360,0.0,2.0,82,0.00,,SKC,0.00,VWS V13.01,2013-02-08 16:55:00,
2013-02-08 11:00:00,34.3,29.4,30.37,WNW,288,1.0,3.0,82,0.00,,SKC,0.00,VWS V13.01,2013-02-08 17:00:00,
2013-02-08 11:05:00,34.4,29.5,30.38,NW,317,2.0,4.0,82,0.00,,SKC,0.00,VWS V13.01,2013-02-08 17:05:00,
2013-02-08 11:10:00,34.4,29.5,30.38,NW,325,2.0,6.0,82,0.00,,SKC,0.00,VWS V13.01,2013-02-08 17:10:00,
2013-02-08 11:15:00,34.2,29.3,30.38,NE,42,0.0,6.0,82,0.00,,SKC,0.00,VWS V13.01,2013-02-08 17:15:00,
2013-02-08 11:20:00,34.2,29.3,30.38,NNE,13,3.0,6.0,82,0.00,,SKC,0.00,VWS V13.01,2013-02-08 17:20:00,
2013-02-08 11:25:00,34.2,29.3,30.38,North,355,1.0,6.0,82,0.00,,SKC,0.00,VWS V13.01,2013-02-08 17:25:00,
2013-02-08 11:30:00,34.1,29.2,30.38,NNW,331,1.0,6.0,82,0.00,,SKC,0.00,VWS V13.01,2013-02-08 17:30:00,
2013-02-08 11:35:00,34.1,29.2,30.38,NNW,345,0.0,6.0,82,0.00,,SKC,0.00,VWS V13.01,2013-02-08 17:35:00,
2013-02-08 11:40:00,34.1,29.2,30.38,NNW,340,2.0,10.0,82,0.00,,SKC,0.00,VWS V13.01,2013-02-08 17:40:00,
2013-02-08 11:45:00,34.1,29.2,30.38,North,355,4.0,5.0,82,0.00,,SKC,0.00,VWS V13.01,2013-02-08 17:45:00,
2013-02-08 11:50:00,34.2,29.3,30.38,NW,322,3.0,7.0,82,0.00,,SKC,0.00,VWS V13.01,2013-02-08 17:50:00,
2013-02-08 11:55:00,34.3,29.1,30.38,NNW,342,4.0,8.0,81,0.00,,SKC,0.00,VWS V13.01,2013-02-08 17:55:00,
2013-02-08 12:00:00,34.3,29.1,30.38,North,10,4.0,8.0,81,0.00,,SKC,0.00,VWS V13.01,2013-02-08 18:00:00,
2013-02-08 12:05:00,34.3,29.1,30.38,North,11,3.0,4.0,81,0.00,,SKC,0.00,VWS V13.01,2013-02-08 18:05:00,
2013-02-08 12:10:00,34.4,29.5,30.38,NW,320,3.0,6.0,82,0.00,,SKC,0.00,VWS V13.01,2013-02-08 18:10:00,
2013-02-08 12:15:00,34.4,29.5,30.38,NE,46,1.0,3.0,82,0.00,,SKC,0.00,VWS V13.01,2013-02-08 18:15:00,
2013-02-08 12:20:00,34.4,29.5,30.38,NNE,15,1.0,4.0,82,0.00,,SKC,0.00,VWS V13.01,2013-02-08 18:20:00,
2013-02-08 12:25:00,34.4,29.2,30.38,NNE,32,3.0,5.0,81,0.00,,SKC,0.00,VWS V13.01,2013-02-08 18:25:00,
2013-02-08 12:30:00,34.4,28.9,30.37,NNE,32,2.0,5.0,80,0.00,,SKC,0.00,VWS V13.01,2013-02-08 18:30:00,
2013-02-08 12:35:00,34.4,28.9,30.37,North,355,1.0,4.0,80,0.00,,SKC,0.00,VWS V13.01,2013-02-08 18:35:00,
2013-02-08 12:40:00,34.4,28.9,30.37,North,10,0.0,10.0,80,0.00,,SKC,0.00,VWS V13.01,2013-02-08 18:40:00,
2013-02-08 12:45:00,34.7,29.2,30.37,NNW,334,1.0,5.0,80,0.00,,SKC,0.00,VWS V13.01,2013-02-08 18:45:00,
2013-02-08 12:50:00,34.8,29.3,30.37,NNW,342,0.0,5.0,80,0.00,,SKC,0.00,VWS V13.01,2013-02-08 18:50:00,
2013-02-08 12:55:00,34.8,29.3,30.37,NNW,327,0.0,3.0,80,0.00,,SKC,0.00,VWS V13.01,2013-02-08 18:55:00,
2013-02-08 13:00:00,34.8,29.3,30.37,North,11,0.0,4.0,80,0.00,,SKC,0.00,VWS V13.01,2013-02-08 19:00:00,
2013-02-08 13:05:00,35.0,29.5,30.37,NNE,15,0.0,3.0,80,0.00,,SKC,0.00,VWS V13.01,2013-02-08 19:05:00,
2013-02-08 13:11:00,35.0,29.5,30.37,NNE,28,3.0,10.0,80,0.00,,SKC,0.00,VWS V13.01,2013-02-08 19:11:00,
2013-02-08 13:15:00,35.0,29.5,30.37,NE,52,2.0,5.0,80,0.00,,SKC,0.00,VWS V13.01,2013-02-08 19:15:00,
2013-02-08 13:21:00,35.0,29.5,30.36,North,9,2.0,5.0,80,0.00,,SKC,0.00,VWS V13.01,2013-02-08 19:21:00,
2013-02-08 13:26:00,35.0,29.5,30.36,NNE,12,2.0,4.0,80,0.00,,SKC,0.00,VWS V13.01,2013-02-08 19:26:00,
2013-02-08 13:31:00,35.0,29.5,30.36,NNE,18,2.0,5.0,80,0.00,,SKC,0.00,VWS V13.01,2013-02-08 19:31:00,
2013-02-08 13:36:00,35.1,29.6,30.36,ENE,59,1.0,5.0,80,0.00,,SKC,0.00,VWS V13.01,2013-02-08 19:36:00,
2013-02-08 13:41:00,35.2,29.7,30.35,NE,56,0.0,6.0,80,0.00,,SKC,0.00,VWS V13.01,2013-02-08 19:41:00,
2013-02-08 13:45:00,35.3,29.8,30.36,NNE,20,1.0,5.0,80,0.00,,SKC,0.00,VWS V13.01,2013-02-08 19:45:00,
2013-02-08 13:51:00,35.2,29.7,30.35,NW,322,3.0,5.0,80,0.00,,SKC,0.00,VWS V13.01,2013-02-08 19:51:00,
2013-02-08 13:56:00,35.2,29.4,30.36,NNE,17,3.0,4.0,79,0.00,,SKC,0.00,VWS V13.01,2013-02-08 19:56:00,
2013-02-08 14:01:00,35.0,29.5,30.36,NE,41,2.0,7.0,80,0.00,,SKC,0.00,VWS V13.01,2013-02-08 20:01:00,
2013-02-08 14:06:00,35.0,29.5,30.36,NE,36,0.0,3.0,80,0.00,,SKC,0.00,VWS V13.01,2013-02-08 20:06:00,
2013-02-08 14:11:00,35.1,29.3,30.36,NNW,329,0.0,3.0,79,0.00,,SKC,0.00,VWS V13.01,2013-02-08 20:11:00,
2013-02-08 14:16:00,35.2,29.4,30.36,NE,49,3.0,5.0,79,0.00,,SKC,0.00,VWS V13.01,2013-02-08 20:16:00,
2013-02-08 14:21:00,35.2,29.4,30.36,WNW,290,2.0,6.0,79,0.00,,SKC,0.00,VWS V13.01,2013-02-08 20:21:00,
2013-02-08 14:26:00,35.2,29.4,30.37,NNW,329,2.0,4.0,79,0.00,,SKC,0.00,VWS V13.01,2013-02-08 20:26:00,
2013-02-08 14:31:00,35.2,29.4,30.37,NE,51,0.0,5.0,79,0.00,,SKC,0.00,VWS V13.01,2013-02-08 20:31:00,
2013-02-08 14:36:00,35.2,29.4,30.37,NE,52,0.0,3.0,79,0.00,,SKC,0.00,VWS V13.01,2013-02-08 20:36:00,
2013-02-08 14:41:00,35.2,29.4,30.38,NE,52,2.0,3.0,79,0.00,,SKC,0.00,VWS V13.01,2013-02-08 20:41:00,
2013-02-08 14:45:00,35.2,29.4,30.37,NE,52,0.0,3.0,79,0.00,,SKC,0.00,VWS V13.01,2013-02-08 20:45:00,
2013-02-08 14:50:00,35.3,29.5,30.38,NE,52,2.0,5.0,79,0.00,,SKC,0.00,VWS V13.01,2013-02-08 20:50:00,
2013-02-08 14:56:00,35.3,29.5,30.38,NW,323,1.0,4.0,79,0.00,,SKC,0.00,VWS V13.01,2013-02-08 20:56:00,
2013-02-08 15:01:00,35.3,29.5,30.38,NNE,28,0.0,4.0,79,0.00,,SKC,0.00,VWS V13.01,2013-02-08 21:01:00,
2013-02-08 15:05:00,35.3,29.5,30.38,NW,311,1.0,2.0,79,0.00,,SKC,0.00,VWS V13.01,2013-02-08 21:05:00,
2013-02-08 15:10:00,35.3,29.5,30.38,WNW,290,1.0,3.0,79,0.00,,SKC,0.00,VWS V13.01,2013-02-08 21:10:00,
2013-02-08 15:15:00,35.4,29.5,30.38,NNE,29,3.0,6.0,79,0.00,,SKC,0.00,VWS V13.01,2013-02-08 21:15:00,
2013-02-08 15:20:00,35.4,29.9,30.38,NNE,33,0.0,6.0,80,0.00,,SKC,0.00,VWS V13.01,2013-02-08 21:20:00,
2013-02-08 15:25:00,35.3,29.5,30.38,NNW,330,1.0,3.0,79,0.00,,SKC,0.00,VWS V13.01,2013-02-08 21:25:00,
2013-02-08 15:30:00,35.3,29.5,30.38,NNE,33,3.0,3.0,79,0.00,,SKC,0.00,VWS V13.01,2013-02-08 21:30:00,
2013-02-08 15:35:00,35.2,29.7,30.38,NNE,22,0.0,3.0,80,0.00,,SKC,0.00,VWS V13.01,2013-02-08 21:35:00,
2013-02-08 15:40:00,35.2,29.7,30.39,NW,306,2.0,3.0,80,0.00,,SKC,0.00,VWS V13.01,2013-02-08 21:40:00,
2013-02-08 15:45:00,35.0,29.2,30.39,NE,34,0.0,5.0,79,0.00,,SKC,0.00,VWS V13.01,2013-02-08 21:45:00,
2013-02-08 15:50:00,35.0,29.5,30.39,NNW,327,2.0,5.0,80,0.00,,SKC,0.00,VWS V13.01,2013-02-08 21:50:00,
2013-02-08 15:55:00,34.8,29.3,30.40,WNW,300,1.0,3.0,80,0.00,,SKC,0.00,VWS V13.01,2013-02-08 21:55:00,
2013-02-08 16:00:00,34.9,29.4,30.39,NW,306,0.0,3.0,80,0.00,,SKC,0.00,VWS V13.01,2013-02-08 22:00:00,
2013-02-08 16:05:00,34.9,29.4,30.40,NW,322,1.0,3.0,80,0.00,,SKC,0.00,VWS V13.01,2013-02-08 22:05:00,
2013-02-08 16:10:00,34.8,29.3,30.40,WNW,289,0.0,5.0,80,0.00,,SKC,0.00,VWS V13.01,2013-02-08 22:10:00,
2013-02-08 16:16:00,34.8,29.3,30.41,West,265,0.0,3.0,80,0.00,,SKC,0.00,VWS V13.01,2013-02-08 22:16:00,
2013-02-08 16:20:00,34.7,28.9,30.41,North,355,1.0,6.0,79,0.00,,SKC,0.00,VWS V13.01,2013-02-08 22:20:00,
2013-02-08 16:25:00,34.7,28.9,30.42,North,11,1.0,2.0,79,0.00,,SKC,0.00,VWS V13.01,2013-02-08 22:25:00,
2013-02-08 16:30:00,34.7,29.2,30.42,NNE,32,2.0,3.0,80,0.00,,SKC,0.00,VWS V13.01,2013-02-08 22:30:00,
2013-02-08 16:35:00,34.5,28.7,30.42,NE,41,1.0,3.0,79,0.00,,SKC,0.00,VWS V13.01,2013-02-08 22:35:00,
2013-02-08 16:40:00,34.5,29.0,30.42,NE,42,0.0,3.0,80,0.00,,SKC,0.00,VWS V13.01,2013-02-08 22:40:00,
2013-02-08 16:45:00,34.5,29.0,30.42,NE,42,0.0,2.0,80,0.00,,SKC,0.00,VWS V13.01,2013-02-08 22:45:00,
2013-02-08 16:50:00,34.4,28.9,30.42,NNE,28,3.0,3.0,80,0.00,,SKC,0.00,VWS V13.01,2013-02-08 22:50:00,
2013-02-08 16:55:00,34.4,28.9,30.42,NNE,32,0.0,2.0,80,0.00,,SKC,0.00,VWS V13.01,2013-02-08 22:55:00,
2013-02-08 17:00:00,34.4,28.9,30.41,NNW,327,0.0,3.0,80,0.00,,SKC,0.00,VWS V13.01,2013-02-08 23:00:00,
2013-02-08 17:05:00,34.4,28.9,30.41,NW,326,1.0,2.0,80,0.00,,SKC,0.00,VWS V13.01,2013-02-08 23:05:00,
2013-02-08 17:10:00,34.4,28.9,30.41,NNE,23,1.0,3.0,80,0.00,,SKC,0.00,VWS V13.01,2013-02-08 23:10:00,
2013-02-08 17:15:00,34.4,28.9,30.41,ENE,57,2.0,5.0,80,0.00,,SKC,0.00,VWS V13.01,2013-02-08 23:15:00,
2013-02-08 17:21:00,34.4,28.9,30.40,NE,50,3.0,7.0,80,0.00,,SKC,0.00,VWS V13.01,2013-02-08 23:21:00,
2013-02-08 17:25:00,34.4,28.9,30.40,NE,49,0.0,1.0,80,0.00,,SKC,0.00,VWS V13.01,2013-02-08 23:25:00,
2013-02-08 17:30:00,34.4,29.2,30.40,NE,34,6.0,6.0,81,0.00,,SKC,0.00,VWS V13.01,2013-02-08 23:30:00,
2013-02-08 17:35:00,34.2,28.7,30.39,NE,40,1.0,4.0,80,0.00,,SKC,0.00,VWS V13.01,2013-02-08 23:35:00,
2013-02-08 17:40:00,34.1,28.9,30.39,NE,39,2.0,4.0,81,0.00,,SKC,0.00,VWS V13.01,2013-02-08 23:40:00,
2013-02-08 17:45:00,34.1,28.9,30.39,NE,40,3.0,3.0,81,0.00,,SKC,0.00,VWS V13.01,2013-02-08 23:45:00,
2013-02-08 17:50:00,34.1,28.9,30.39,NE,40,0.0,4.0,81,0.00,,SKC,0.00,VWS V13.01,2013-02-08 23:50:00,
2013-02-08 17:55:00,34.1,28.9,30.38,NE,46,0.0,4.0,81,0.00,,SKC,0.00,VWS V13.01,2013-02-08 23:55:00,
2013-02-08 18:00:00,34.1,28.9,30.39,NE,51,3.0,4.0,81,0.00,,SKC,0.00,VWS V13.01,2013-02-09 00:00:00,
2013-02-08 18:05:00,34.0,28.8,30.38,NE,36,2.0,4.0,81,0.00,,SKC,0.00,VWS V13.01,2013-02-09 00:05:00,
2013-02-08 18:10:00,34.0,28.8,30.39,NE,37,1.0,6.0,81,0.00,,SKC,0.00,VWS V13.01,2013-02-09 00:10:00,
2013-02-08 18:15:00,34.0,29.1,30.38,NE,39,1.0,7.0,82,0.00,,SKC,0.00,VWS V13.01,2013-02-09 00:15:00,
2013-02-08 18:20:00,33.9,29.0,30.39,NE,42,2.0,7.0,82,0.00,,SKC,0.00,VWS V13.01,2013-02-09 00:20:00,
2013-02-08 18:25:00,33.9,28.7,30.39,East,96,1.0,2.0,81,0.00,,SKC,0.00,VWS V13.01,2013-02-09 00:25:00,
2013-02-08 18:30:00,33.8,28.6,30.39,East,96,0.0,2.0,81,0.00,,SKC,0.00,VWS V13.01,2013-02-09 00:30:00,
2013-02-08 18:35:00,33.7,28.8,30.39,NNE,28,1.0,4.0,82,0.00,,SKC,0.00,VWS V13.01,2013-02-09 00:35:00,
2013-02-08 18:40:00,33.7,28.8,30.39,NNE,30,0.0,4.0,82,0.00,,SKC,0.00,VWS V13.01,2013-02-09 00:40:00,
2013-02-08 18:45:00,33.6,28.4,30.39,East,88,2.0,2.0,81,0.00,,SKC,0.00,VWS V13.01,2013-02-09 00:45:00,
2013-02-08 18:50:00,33.4,28.2,30.39,East,88,2.0,4.0,81,0.00,,SKC,0.00,VWS V13.01,2013-02-09 00:50:00,
2013-02-08 18:55:00,33.4,28.2,30.39,East,92,1.0,3.0,81,0.00,,SKC,0.00,VWS V13.01,2013-02-09 00:55:00,
2013-02-08 19:00:00,33.3,28.1,30.39,ENE,59,1.0,4.0,81,0.00,,SKC,0.00,VWS V13.01,2013-02-09 01:00:00,
2013-02-08 19:05:00,33.2,28.0,30.39,East,91,1.0,1.0,81,0.00,,SKC,0.00,VWS V13.01,2013-02-09 01:05:00,
2013-02-08 19:10:00,33.1,27.9,30.40,East,79,2.0,3.0,81,0.00,,SKC,0.00,VWS V13.01,2013-02-09 01:10:00,
2013-02-08 19:15:00,33.0,27.8,30.40,NE,39,3.0,4.0,81,0.00,,SKC,0.00,VWS V13.01,2013-02-09 01:15:00,
2013-02-08 19:20:00,32.9,27.7,30.41,NE,38,0.0,4.0,81,0.00,,SKC,0.00,VWS V13.01,2013-02-09 01:20:00,
2013-02-08 19:25:00,32.8,27.6,30.41,NE,39,0.0,2.0,81,0.00,,SKC,0.00,VWS V13.01,2013-02-09 01:25:00,
2013-02-08 19:30:00,32.7,27.5,30.41,NE,39,2.0,4.0,81,0.00,,SKC,0.00,VWS V13.01,2013-02-09 01:30:00,
2013-02-08 19:35:00,32.6,27.7,30.41,East,84,2.0,2.0,82,0.00,,SKC,0.00,VWS V13.01,2013-02-09 01:35:00,
2013-02-08 19:40:00,32.5,27.6,30.40,East,84,2.0,4.0,82,0.00,,SKC,0.00,VWS V13.01,2013-02-09 01:40:00,
2013-02-08 19:45:00,32.4,27.5,30.41,East,84,0.0,2.0,82,0.00,,SKC,0.00,VWS V13.01,2013-02-09 01:45:00,
2013-02-08 19:50:00,32.3,27.4,30.41,East,85,0.0,4.0,82,0.00,,SKC,0.00,VWS V13.01,2013-02-09 01:50:00,
2013-02-08 19:56:00,32.3,27.4,30.41,East,85,0.0,1.0,82,0.00,,SKC,0.00,VWS V13.01,2013-02-09 01:56:00,
2013-02-08 20:01:00,32.2,27.3,30.41,East,85,0.0,2.0,82,0.00,,SKC,0.00,VWS V13.01,2013-02-09 02:01:00,
2013-02-08 20:06:00,32.3,27.4,30.41,East,84,0.0,1.0,82,0.00,,SKC,0.00,VWS V13.01,2013-02-09 02:06:00,
2013-02-08 20:10:00,32.3,27.4,30.42,East,85,0.0,2.0,82,0.00,,SKC,0.00,VWS V13.01,2013-02-09 02:10:00,
2013-02-08 20:15:00,32.1,27.2,30.42,East,84,0.0,2.0,82,0.00,,SKC,0.00,VWS V13.01,2013-02-09 02:15:00,
2013-02-08 20:20:00,32.1,27.2,30.42,East,85,0.0,3.0,82,0.00,,SKC,0.00,VWS V13.01,2013-02-09 02:20:00,
2013-02-08 20:25:00,32.1,27.2,30.41,East,84,1.0,3.0,82,0.00,,SKC,0.00,VWS V13.01,2013-02-09 02:25:00,
2013-02-08 20:30:00,32.0,27.1,30.41,East,84,0.0,3.0,82,0.00,,SKC,0.00,VWS V13.01,2013-02-09 02:30:00,
2013-02-08 20:36:00,32.0,27.1,30.41,East,85,2.0,3.0,82,0.00,,SKC,0.00,VWS V13.01,2013-02-09 02:36:00,
2013-02-08 20:41:00,31.9,27.0,30.41,East,85,0.0,3.0,82,0.00,,SKC,0.00,VWS V13.01,2013-02-09 02:41:00,
2013-02-08 20:46:00,31.8,26.9,30.41,East,84,3.0,3.0,82,0.00,,SKC,0.00,VWS V13.01,2013-02-09 02:46:00,
2013-02-08 20:51:00,31.7,26.8,30.41,East,85,1.0,5.0,82,0.00,,SKC,0.00,VWS V13.01,2013-02-09 02:51:00,
2013-02-08 20:56:00,31.6,26.8,30.41,NE,51,3.0,3.0,82,0.00,,SKC,0.00,VWS V13.01,2013-02-09 02:56:00,
2013-02-08 21:01:00,31.5,26.6,30.42,NE,38,1.0,3.0,82,0.00,,SKC,0.00,VWS V13.01,2013-02-09 03:01:00,
2013-02-08 21:06:00,31.4,26.5,30.42,NE,39,2.0,3.0,82,0.00,,SKC,0.00,VWS V13.01,2013-02-09 03:06:00,
2013-02-08 21:10:00,31.3,26.5,30.42,NE,38,1.0,3.0,82,0.00,,SKC,0.00,VWS V13.01,2013-02-09 03:10:00,
2013-02-08 21:15:00,31.2,26.4,30.42,NE,39,0.0,3.0,82,0.00,,SKC,0.00,VWS V13.01,2013-02-09 03:15:00,
2013-02-08 21:20:00,31.2,26.4,30.42,NE,39,3.0,3.0,82,0.00,,SKC,0.00,VWS V13.01,2013-02-09 03:20:00,
2013-02-08 21:25:00,31.1,26.3,30.42,NE,38,0.0,1.0,82,0.00,,SKC,0.00,VWS V13.01,2013-02-09 03:25:00,
2013-02-08 21:30:00,31.0,26.2,30.42,East,80,0.0,4.0,82,0.00,,SKC,0.00,VWS V13.01,2013-02-09 03:30:00,
2013-02-08 21:35:00,31.0,26.5,30.42,ESE,114,0.0,3.0,83,0.00,,SKC,0.00,VWS V13.01,2013-02-09 03:35:00,
2013-02-08 21:40:00,31.0,26.2,30.42,ESE,114,1.0,3.0,82,0.00,,SKC,0.00,VWS V13.01,2013-02-09 03:40:00,
2013-02-08 21:45:00,31.1,26.3,30.41,ESE,111,2.0,2.0,82,0.00,,SKC,0.00,VWS V13.01,2013-02-09 03:45:00,
2013-02-08 21:50:00,31.1,26.3,30.42,ESE,119,4.0,4.0,82,0.00,,SKC,0.00,VWS V13.01,2013-02-09 03:50:00,
2013-02-08 21:55:00,31.0,26.5,30.42,ESE,119,1.0,2.0,83,0.00,,SKC,0.00,VWS V13.01,2013-02-09 03:55:00,
2013-02-08 22:00:00,31.0,26.5,30.42,SSE,161,0.0,3.0,83,0.00,,SKC,0.00,VWS V13.01,2013-02-09 04:00:00,
2013-02-08 22:05:00,31.0,26.5,30.42,SSE,160,1.0,2.0,83,0.00,,SKC,0.00,VWS V13.01,2013-02-09 04:05:00,
2013-02-08 22:10:00,30.9,26.4,30.42,SSE,160,0.0,3.0,83,0.00,,SKC,0.00,VWS V13.01,2013-02-09 04:10:00,
2013-02-08 22:15:00,30.9,26.6,30.42,SSE,159,0.0,3.0,84,0.00,,SKC,0.00,VWS V13.01,2013-02-09 04:15:00,
2013-02-08 22:20:00,30.8,26.5,30.42,ENE,74,0.0,4.0,84,0.00,,SKC,0.00,VWS V13.01,2013-02-09 04:20:00,
2013-02-08 22:25:00,30.7,26.5,30.42,ENE,74,0.0,3.0,84,0.00,,SKC,0.00,VWS V13.01,2013-02-09 04:25:00,
2013-02-08 22:30:00,30.6,26.4,30.41,ESE,115,1.0,3.0,84,0.00,,SKC,0.00,VWS V13.01,2013-02-09 04:30:00,
2013-02-08 22:35:00,30.6,26.4,30.41,ESE,114,0.0,3.0,84,0.00,,SKC,0.00,VWS V13.01,2013-02-09 04:35:00,
2013-02-08 22:40:00,30.6,26.4,30.41,ESE,114,0.0,3.0,84,0.00,,SKC,0.00,VWS V13.01,2013-02-09 04:40:00,
2013-02-08 22:45:00,30.6,26.4,30.41,East,101,3.0,3.0,84,0.00,,SKC,0.00,VWS V13.01,2013-02-09 04:45:00,
2013-02-08 22:50:00,30.3,26.1,30.41,ESE,122,2.0,4.0,84,0.00,,SKC,0.00,VWS V13.01,2013-02-09 04:50:00,
2013-02-08 22:55:00,30.1,25.9,30.41,NE,49,0.0,2.0,84,0.00,,SKC,0.00,VWS V13.01,2013-02-09 04:55:00,
2013-02-08 23:00:00,30.0,25.8,30.41,East,86,0.0,4.0,84,0.00,,SKC,0.00,VWS V13.01,2013-02-09 05:00:00,
2013-02-08 23:05:00,30.0,25.8,30.41,East,86,1.0,1.0,84,0.00,,SKC,0.00,VWS V13.01,2013-02-09 05:05:00,
2013-02-08 23:10:00,30.0,25.8,30.41,East,86,0.0,3.0,84,0.00,,SKC,0.00,VWS V13.01,2013-02-09 05:10:00,
2013-02-08 23:15:00,29.9,25.7,30.40,East,94,1.0,3.0,84,0.00,,SKC,0.00,VWS V13.01,2013-02-09 05:15:00,
2013-02-08 23:20:00,29.7,25.5,30.40,East,94,0.0,5.0,84,0.00,,SKC,0.00,VWS V13.01,2013-02-09 05:20:00,
2013-02-08 23:25:00,29.7,25.5,30.40,SE,129,0.0,1.0,84,0.00,,SKC,0.00,VWS V13.01,2013-02-09 05:25:00,
2013-02-08 23:30:00,29.7,25.5,30.40,SE,130,0.0,2.0,84,0.00,,SKC,0.00,VWS V13.01,2013-02-09 05:30:00,
2013-02-08 23:35:00,29.7,25.5,30.40,ESE,123,1.0,2.0,84,0.00,,SKC,0.00,VWS V13.01,2013-02-09 05:35:00,
2013-02-08 23:40:00,29.5,25.3,30.40,SE,125,3.0,7.0,84,0.00,,SKC,0.00,VWS V13.01,2013-02-09 05:40:00,
2013-02-08 23:45:00,29.3,25.1,30.40,SE,129,2.0,3.0,84,0.00,,SKC,0.00,VWS V13.01,2013-02-09 05:45:00,
2013-02-08 23:50:00,29.2,25.0,30.41,ENE,78,2.0,4.0,84,0.00,,SKC,0.00,VWS V13.01,2013-02-09 05:50:00,
2013-02-08 23:55:00,29.2,25.0,30.41,SSE,148,2.0,3.0,84,0.00,,SKC,0.00,VWS V13.01,2013-02-09 05:55:00,